Location: Chiroubles
(46.1812°N, 4.6660°E)
Time: 05:32:04
(UTC+00:00)

Transit 4A - Pass Details

Date: 08 December 2020
Orbit: 864 x 980 km, 66.8° (Epoch: 25 January)

Event Time Altitude Azimuth Distance (km) Brightness Sun altitude
Rises 03:56:22 0° 160° (SSE) 3,623 11.2 -32.8°
Reaches altitude 10° 03:59:48 10° 141° (SE) 2,699 10.7 -32.2°
Maximum altitude 04:03:42 17° 103° (ESE) 2,230 10.6 -31.5°
Drops below altitude 10° 04:07:40 10° 64° (ENE) 2,734 11.1 -30.8°
Sets 04:11:08 0° 46° (NE) 3,691 11.6 -30.2°
